This is the latest recevied weather packets stored in our database for station/object KG5TTF. If no packets are shown the sender has not sent any weather packets the latest 10 day(s).
| Time | Temp. | Humidity | Pressure | Rain* | Wind** | Luminosity | Snow |
|---|---|---|---|---|---|---|---|
| 1778073939 | -2.22° C | 99% | 1021.1 hPa | 0 mm | - | 16 W/m² | - |
| 1778073636 | -2.22° C | 99% | 1020.8 hPa | 0 mm | - | 18 W/m² | - |
| 1778073333 | -2.22° C | 99% | 1020.5 hPa | 0 mm | - | 29 W/m² | - |
| 1778073029 | -2.22° C | 99% | 1020.7 hPa | 0 mm | - | 40 W/m² | - |
| 1778072726 | -2.22° C | 99% | 1020.4 hPa | 0 mm | - | 34 W/m² | - |
| 1778072424 | -2.78° C | 99% | 1020.4 hPa | 0 mm | - | 23 W/m² | - |
| 1778072122 | -2.78° C | 99% | 1020.8 hPa | 0 mm | - | 17 W/m² | - |
| 1778071819 | -2.78° C | 99% | 1020.4 hPa | 0 mm | - | 11 W/m² | - |
| 1778071517 | -2.78° C | 99% | 1020.3 hPa | 0 mm | - | 10 W/m² | - |
| 1778071215 | -2.78° C | 99% | 1020 hPa | 0 mm | - | 6 W/m² | - |
| 1778070913 | -2.78° C | 99% | 1020 hPa | 0 mm | - | 7 W/m² | - |
| 1778070610 | -2.78° C | 99% | 1020.2 hPa | 0 mm | - | 6 W/m² | - |
| 1778070307 | -2.78° C | 99% | 1020.2 hPa | 0 mm | - | 5 W/m² | - |
| 1778070005 | -2.78° C | 99% | 1019.9 hPa | 0 mm | - | 5 W/m² | - |
| 1778069702 | -2.78° C | 99% | 1020 hPa | 0 mm | - | 4 W/m² | - |
| 1778069398 | -2.78° C | 99% | 1020.3 hPa | 0 mm | - | 2 W/m² | - |
| 1778069096 | -2.78° C | 99% | 1020 hPa | 0 mm | - | 2 W/m² | - |
| 1778068794 | -2.78° C | 99% | 1020 hPa | 0 mm | - | 1 W/m² | - |
| 1778068491 | -2.78° C | 99% | 1019.9 hPa | 0 mm | - | 1 W/m² | - |
| 1778068189 | -2.78° C | 99% | 1019.7 hPa | 0 mm | - | 0 W/m² | - |
| 1778067886 | -3.33° C | 99% | 1019.8 hPa | 0 mm | - | 0 W/m² | - |
| 1778067585 | -2.78° C | 99% | 1019.4 hPa | 0 mm | - | 0 W/m² | - |
| 1778067283 | -2.78° C | 99% | 1019.7 hPa | 0 mm | - | 0 W/m² | - |
| 1778066979 | -2.78° C | 99% | 1019.7 hPa | 0 mm | - | 0 W/m² | - |
| 1778066677 | -2.78° C | 99% | 1019.6 hPa | 0 mm | - | 0 W/m² | - |
* Rain latest hour (hover to see other rain measurements)
** Current wind speed in m/s (hover to see current wind gust speed)